[[{"header":{"parameterUnit":"m.s-1","parameterCategory":1,"la1":30.2991,"la2":30.254,"lo1":-89.0895,"lo2":-89.0444,"dx":0.0017,"dy":0.0017,"nx":28,"ny":28,"refTime":"2023-01-07T03:00:00:Z","depth":0,"parameterNumber":2,"parameterNumberName":"U-component_of_WINDS"},"data":[0,0,0,0,0,0,0,0,0,0,0,0,0,0,0,0,0,0,0,0,0,0,0,0,0,0,0,0,0,0,0,0,0,0,0,0,0,0,0,0,0,0,0,0,0,0,0,0,0,0,0,0,0,0,0,0,0,0,-2.4832,-2.4833,0,-2.4893,-2.4893,-2.4894,-2.4869,-2.4867,-2.4866,-2.4865,-2.4927,-2.493,-2.4933,0,0,0,0,0,0,0,0,0,0,0,0,0,-2.4695,-2.4697,-2.4832,-2.4833,-2.4834,-2.4892,-2.4893,-2.4894,-2.4869,-2.4867,-2.4866,-2.4864,-2.4926,-2.493,-2.4933,0,0,0,0,0,0,0,0,0,0,0,0,0,-2.4755,-2.4698,-2.4832,-2.4828,-2.4828,-2.4892,-2.4893,-2.4894,-2.4869,-2.4867,-2.4865,-2.4863,-2.4925,-2.4929,-2.4934,-2.5005,0,0,-2.4948,-2.495,0,0,0,0,0,0,0,0,-2.4751,-2.476,-2.4828,-2.4829,-2.4829,-2.4871,-2.4868,-2.4932,-2.487,-2.4854,-2.4865,-2.4862,-2.491,-2.4916,-2.4932,-2.5008,-2.5011,-2.4948,-2.4951,-2.4953,-2.4954,0,0,0,0,0,0,0,-2.4747,-2.4757,-2.4856,-2.4829,-2.483,-2.4823,-2.4829,-2.488,-2.4894,-2.4855,-2.4853,-2.4861,-2.491,-2.4928,-2.4933,-2.5012,-2.4948,-2.4952,-2.4955,-2.4956,-2.5147,-2.5149,0,0,0,0,0,0,-2.4743,-2.4754,-2.4854,-2.4858,-2.4784,-2.4828,-2.4834,-2.486,-2.4893,-2.4896,-2.4863,-2.486,-2.4921,-2.4928,-2.4935,-2.5019,-2.4953,-2.4957,-2.496,-2.5144,-2.5147,-2.515,0,0,0,0,0,0,-2.474,-2.4752,-2.4852,-2.4805,-2.4817,-2.4832,-2.4861,-2.4862,-2.4879,-2.4899,-2.4901,-2.4878,-2.492,-2.4929,-2.4987,-2.5021,-2.4959,-2.4963,-2.5142,-2.5145,-2.5148,-2.5188,0,0,0,0,0,0,-2.4736,-2.4751,-2.4779,-2.4806,-2.482,-2.4903,-2.4863,-2.4865,-2.4887,-2.4884,-2.4914,-2.4917,-2.4919,-2.4981,-2.4992,-2.5026,-2.4967,-2.5139,-2.5143,-2.5147,-2.5184,-2.5193,-2.52,0,0,0,0,0,-2.4731,-2.4788,-2.478,-2.4792,-2.4855,-2.4905,-2.4913,-2.4914,-2.489,-2.4917,-2.4929,-2.4916,-2.5016,-2.4987,-2.4999,-2.5035,-2.5137,-2.5142,-2.5147,-2.518,-2.5191,-2.52,0,0,0,0,0,0,-2.4765,-2.4792,-2.4783,-2.4851,-2.4876,-2.4901,-2.4935,-2.4926,-2.4958,-2.4953,-2.4953,-2.496,-2.502,-2.5034,-2.5001,-2.5105,-2.5072,-2.508,-2.5094,-2.5104,-2.5112,-2.5106,-2.497,0,0,0,0,0,-2.478,-2.4819,-2.484,-2.4898,-2.491,-2.4921,-2.4943,-2.4941,-2.4967,-2.4978,-2.4994,-2.502,-2.5057,-2.5081,-2.5117,-2.5186,-2.5191,-2.5217,-2.5225,-2.5231,-2.5238,-2.5273,-2.5284,-2.5167,-2.5167,-2.5167,0,0,-2.4812,-2.4832,-2.4856,-2.4905,-2.4924,-2.4963,-2.493,-2.4974,-2.5002,-2.4985,-2.504,-2.5053,-2.5082,-2.5145,-2.5174,-2.5158,-2.5272,-2.5238,-2.5243,-2.5246,-2.528,-2.5291,-2.5301,-2.5171,-2.517,-2.5169,0,0,-2.489,-2.4909,-2.4958,-2.4978,-2.5007,-2.5013,-2.5025,-2.5051,-2.5058,-2.5114,-2.5101,-2.5135,-2.52,-2.522,-2.5239,-2.5322,-2.531,-2.5334,-2.5376,-2.541,-2.542,-2.5428,-2.5456,-2.5466,-2.5341,-2.5341,-2.5341,0,-2.4926,-2.4985,-2.4985,-2.5028,-2.505,-2.5034,-2.5083,-2.5102,-2.5142,-2.5156,-2.5138,-2.5217,-2.5236,-2.5303,-2.5323,-2.5339,-2.5352,-2.533,-2.5418,-2.5426,-2.5434,-2.5461,-2.5471,-2.5343,-2.5343,-2.5343,-2.5343,0,-2.5026,-2.5067,-2.5103,-2.514,-2.5166,-2.5212,-2.5218,-2.5244,-2.524,-2.5248,-2.5304,-2.5325,-2.5363,-2.538,-2.5377,-2.5446,-2.5435,-2.5418,-2.5385,-2.5448,-2.5473,-2.5483,-2.5347,-2.5346,-2.5345,-2.5345,0,0,-2.5127,-2.5163,-2.5176,-2.5191,-2.5222,-2.5253,-2.5298,-2.5335,-2.5356,-2.5384,-2.5421,-2.5475,-2.5458,-2.548,-2.5479,-2.551,-2.5572,-2.5488,-2.5489,-2.5501,-2.5647,-2.5658,-2.567,-2.5564,-2.5566,-2.5568,-2.5643,0,-2.5206,-2.5284,-2.5285,-2.5357,-2.5393,-2.5379,-2.5418,-2.544,-2.5449,-2.5481,-2.5491,-2.5528,-2.5505,-2.5517,-2.5547,-2.5558,-2.5601,-2.5553,-2.5597,-2.5599,-2.5589,-2.5683,-2.5696,-2.5766,-2.5653,-2.5655,-2.5656,0,-2.5308,-2.5337,-2.5413,-2.5436,-2.5451,-2.5486,-2.5519,-2.555,-2.5575,-2.5579,-2.5602,-2.5596,-2.5641,-2.5608,-2.5669,-2.5636,-2.5654,-2.5662,-2.5665,-2.5668,-2.563,-2.5687,-2.5789,-2.5799,-2.5672,-2.5671,-2.567,0,-2.5371,-2.543,-2.5482,-2.5496,-2.5525,-2.555,-2.5563,-2.5585,-2.5607,-2.5636,-2.5649,-2.5683,-2.5702,-2.5728,-2.5731,-2.5707,-2.5792,-2.5759,-2.5795,-2.5795,-2.5812,-2.5811,-2.5917,-2.5827,-2.5827,-2.5827,-2.5827,0,-2.5458,-2.5504,-2.551,-2.5542,-2.5593,-2.5593,-2.5643,-2.5654,-2.5674,-2.5708,-2.5698,-2.5729,-2.5732,-2.5764,-2.5767,-2.5816,-2.5825,-2.5829,-2.5828,-2.5829,-2.5828,-2.5839,-2.5834,-2.583,-2.5829,-2.5829,-2.5828,0,-2.5537,-2.5543,-2.5598,-2.5621,-2.5627,-2.5663,-2.5682,-2.5712,-2.5719,-2.5761,-2.5771,-2.5783,-2.582,-2.5826,-2.587,-2.5871,-2.5929,-2.5925,-2.5921,-2.5919,-2.5954,-2.595,-2.607,-2.6085,-2.5987,-2.5988,-2.5989,0,-2.5591,-2.5626,-2.5651,-2.5672,-2.5686,-2.5721,-2.5742,-2.5743,-2.5766,-2.5796,-2.5822,-2.5858,-2.5887,-2.5947,-2.5958,-2.5991,-2.5987,-2.6027,-2.5992,-2.599,-2.5985,-2.5982,-2.5984,-2.6033,-2.6034,-2.6035,-2.6035,0,-2.5685,-2.5686,-2.5717,-2.5749,-2.5774,-2.58,-2.5823,-2.5841,-2.5845,-2.5871,-2.5909,-2.5931,-2.5975,-2.601,-2.6042,-2.6056,-2.6046,-2.6046,-2.6056,-2.6055,-2.605,-2.6051,-2.5937,-2.6043,-2.6042,-2.6042,-2.6041,-2.6041,-2.5752,-2.5781,-2.5803,-2.5837,-2.5855,-2.5877,-2.5906,-2.5916,-2.5947,-2.5982,-2.5981,-2.6022,-2.6044,-2.6087,-2.6102,-2.6133,-2.612,-2.6135,-2.6138,-2.6141,-2.6143,-2.6047,-2.6139,-2.6139,-2.6139,-2.6139,-2.6139,0,-2.5844,-2.5857,-2.5888,-2.5921,-2.5948,-2.5936,-2.5961,-2.5984,-2.602,-2.6042,-2.6069,-2.6111,-2.6145,-2.6159,-2.6192,-2.6215,-2.6211,-2.6223,-2.622,-2.6223,-2.6154,-2.6142,-2.6225,-2.6225,-2.6225,-2.6225,-2.6225,-2.6225,-2.5894,-2.5943,-2.5946,-2.6003,-2.6016,-2.6055,-2.607,-2.609,-2.6106,-2.6153,-2.6181,-2.619,-2.6208,-2.6242,-2.6272,-2.6275,-2.6287,-2.6301,-2.6302,-2.6237,-2.6228,-2.622,-2.6208,-2.6304,-2.6304,-2.6368,-2.6369,-2.6369]},{"header":{"parameterUnit":"m.s-1","parameterCategory":1,"la1":30.2991,"la2":30.254,"lo1":-89.0895,"lo2":-89.0444,"dx":0.0017,"dy":0.0017,"nx":28,"ny":28,"refTime":"2023-01-07T03:00:00:Z","depth":0,"parameterNumber":3,"parameterNumberName":"V-component_of_WINDS"},"data":[0,0,0,0,0,0,0,0,0,0,0,0,0,0,0,0,0,0,0,0,0,0,0,0,0,0,0,0,0,0,0,0,0,0,0,0,0,0,0,0,0,0,0,0,0,0,0,0,0,0,0,0,0,0,0,0,0,0,0.4408,0.4408,0,0.4418,0.4419,0.4419,0.4379,0.4378,0.4376,0.4375,0.4387,0.4389,0.439,0,0,0,0,0,0,0,0,0,0,0,0,0,0.4357,0.4358,0.4408,0.4408,0.4409,0.4418,0.4419,0.4419,0.4379,0.4378,0.4376,0.4375,0.4387,0.4388,0.439,0,0,0,0,0,0,0,0,0,0,0,0,0,0.4374,0.4358,0.4408,0.439,0.4388,0.4418,0.4419,0.4419,0.4379,0.4378,0.4376,0.4374,0.4386,0.4388,0.439,0.4439,0,0,0.4397,0.4398,0,0,0,0,0,0,0,0,0.4373,0.4376,0.4392,0.4391,0.4389,0.4395,0.4405,0.4426,0.438,0.4383,0.4375,0.4373,0.4392,0.4393,0.4399,0.444,0.444,0.4397,0.4398,0.4399,0.44,0,0,0,0,0,0,0,0.4372,0.4376,0.4412,0.4393,0.4391,0.4382,0.4382,0.4409,0.4397,0.4382,0.4379,0.4381,0.439,0.4397,0.4399,0.444,0.4397,0.4399,0.44,0.4401,0.4523,0.4525,0,0,0,0,0,0,0.4373,0.4375,0.4412,0.4413,0.4377,0.4384,0.4385,0.4395,0.4397,0.4395,0.4383,0.4379,0.4394,0.4396,0.4399,0.4458,0.4399,0.4401,0.4402,0.4522,0.4524,0.4526,0,0,0,0,0,0,0.4372,0.4377,0.4412,0.4393,0.4397,0.4387,0.4399,0.4397,0.4403,0.4397,0.4395,0.4391,0.4393,0.4396,0.443,0.4457,0.4402,0.4404,0.4519,0.4522,0.4525,0.4574,0,0,0,0,0,0,0.4371,0.4377,0.4395,0.4394,0.4398,0.4441,0.4401,0.4398,0.4407,0.4402,0.4404,0.4403,0.4392,0.4427,0.4432,0.4459,0.4406,0.4517,0.4521,0.4524,0.457,0.4578,0.4586,0,0,0,0,0,0.4369,0.4408,0.4396,0.44,0.442,0.4443,0.4446,0.4431,0.4409,0.4427,0.4424,0.4403,0.4453,0.4431,0.4436,0.4465,0.4515,0.4519,0.4524,0.4567,0.4577,0.4585,0,0,0,0,0,0,0.4412,0.4407,0.4394,0.4433,0.4439,0.4436,0.4459,0.4442,0.4455,0.445,0.4432,0.4433,0.447,0.4471,0.4445,0.4513,0.448,0.4486,0.4511,0.4521,0.4528,0.4528,0.4408,0,0,0,0,0,0.4427,0.4445,0.444,0.4475,0.4479,0.4469,0.4478,0.4467,0.4472,0.4474,0.4473,0.448,0.4497,0.4509,0.4524,0.457,0.457,0.4592,0.46,0.4606,0.4612,0.4637,0.4647,0.4541,0.4541,0.454,0,0,0.4456,0.4455,0.4468,0.4484,0.4487,0.4508,0.4471,0.4494,0.451,0.4478,0.451,0.4509,0.4515,0.4556,0.4573,0.4557,0.4641,0.4612,0.4617,0.4619,0.4643,0.4653,0.4662,0.4544,0.4543,0.4543,0,0,0.452,0.4521,0.4551,0.4555,0.456,0.4554,0.4561,0.4561,0.456,0.4591,0.4569,0.4587,0.4617,0.4623,0.463,0.4698,0.468,0.4703,0.4744,0.477,0.4778,0.4786,0.4811,0.482,0.4709,0.4709,0.4709,0,0.4556,0.4586,0.4569,0.4594,0.4602,0.4575,0.4606,0.4611,0.4621,0.4628,0.461,0.4648,0.465,0.4692,0.4709,0.4714,0.4723,0.4703,0.4778,0.4785,0.4792,0.4816,0.4826,0.4712,0.4711,0.4711,0.4711,0,0.463,0.4652,0.4675,0.4686,0.4697,0.4725,0.4714,0.4727,0.4715,0.471,0.4744,0.4746,0.4762,0.4771,0.4759,0.4812,0.4802,0.4781,0.4748,0.4805,0.4828,0.4837,0.4716,0.4715,0.4714,0.4713,0,0,0.4722,0.4724,0.4733,0.4738,0.4742,0.4759,0.4786,0.4802,0.4814,0.4822,0.4846,0.4873,0.4854,0.4862,0.4851,0.4873,0.4929,0.485,0.4849,0.4865,0.4988,0.5005,0.5016,0.4916,0.4918,0.4919,0.4988,0,0.4786,0.4832,0.4819,0.4866,0.4886,0.4861,0.4885,0.4891,0.4888,0.4905,0.4901,0.4921,0.4894,0.4899,0.492,0.4917,0.4953,0.4912,0.4939,0.4941,0.4939,0.5027,0.5044,0.5109,0.4997,0.4998,0.4999,0,0.4866,0.4878,0.4927,0.493,0.4938,0.4959,0.4974,0.499,0.4997,0.4993,0.5003,0.4987,0.5016,0.4983,0.5022,0.4995,0.5005,0.5006,0.5008,0.5011,0.4974,0.5033,0.5129,0.5139,0.5013,0.5012,0.5011,0,0.493,0.4958,0.4991,0.4996,0.4999,0.5016,0.5018,0.5023,0.5034,0.5046,0.5053,0.5069,0.5078,0.5091,0.5081,0.5057,0.5123,0.5088,0.5121,0.5122,0.5137,0.5136,0.5237,0.5142,0.5142,0.5142,0.5141,0,0.5003,0.5035,0.502,0.5041,0.5076,0.506,0.5096,0.5095,0.51,0.5121,0.51,0.512,0.5105,0.5125,0.5117,0.5152,0.5156,0.5154,0.5152,0.5157,0.5157,0.5164,0.516,0.5144,0.5144,0.5143,0.5143,0,0.508,0.5071,0.5106,0.5107,0.5107,0.5133,0.5134,0.5154,0.5149,0.5176,0.5182,0.5175,0.5197,0.5188,0.5211,0.5206,0.5251,0.5243,0.5249,0.5247,0.5281,0.5279,0.539,0.5405,0.53,0.5301,0.5302,0,0.5128,0.5151,0.5155,0.5167,0.5171,0.5191,0.5202,0.5188,0.5201,0.5211,0.523,0.525,0.5265,0.5302,0.53,0.5318,0.531,0.5348,0.5312,0.5317,0.5312,0.5311,0.5314,0.5355,0.5356,0.5357,0.5358,0,0.5214,0.5209,0.5225,0.5241,0.5255,0.5266,0.5276,0.5288,0.5275,0.529,0.5312,0.5324,0.5348,0.5369,0.5385,0.5388,0.5372,0.5369,0.5378,0.5384,0.5387,0.5387,0.527,0.5367,0.5366,0.5365,0.5365,0.5364,0.5279,0.5299,0.5305,0.5325,0.5331,0.5341,0.536,0.5358,0.5376,0.5394,0.5385,0.5411,0.5419,0.5439,0.5445,0.5466,0.5451,0.5463,0.5467,0.547,0.5475,0.5383,0.5468,0.5468,0.5468,0.5468,0.5467,0,0.5365,0.5368,0.5386,0.5401,0.5416,0.5399,0.5409,0.5424,0.5447,0.5455,0.5471,0.5497,0.5518,0.5517,0.5536,0.5553,0.5546,0.5559,0.5558,0.556,0.5487,0.5478,0.5564,0.5564,0.5564,0.5564,0.5564,0.5564,0.5412,0.5446,0.5442,0.5479,0.5482,0.5507,0.5515,0.5525,0.5531,0.5562,0.5578,0.5578,0.5583,0.5603,0.5621,0.5621,0.5629,0.5645,0.5642,0.5574,0.5564,0.5555,0.5547,0.5647,0.5647,0.5713,0.5714,0.5714]}]]